Garden City, KS

9:09 PM CST on December 10, 2017 (GMT -0600)
Garden City Regional

Weather History for KGCK - July, 2013

Change the Weather History Date:

Saturday, July 20, 2013

  Actual Average Record
Temperature  
Mean Temperature 78 °F 79 °F  
Max Temperature 90 °F 92 °F 108 °F (2011)
Min Temperature 66 °F 65 °F 56 °F (1970)
Degree Days  
Heating Degree Days 0 0  
Month to date heating degree days 0 0  
Since 1 June heating degree days 12 16  
Since 1 July heating degree days 0 0  
Cooling Degree Days 13 14  
Month to date cooling degree days 286 263  
Year to date cooling degree days 824 604  
Since 1 June cooling degree days 677 515  
Growing Degree Days 28 (Base 50)    
Moisture  
Dew Point 64 °F    
Average Humidity 65    
Maximum Humidity 93    
Minimum Humidity 36    
Precipitation  
Precipitation 0.08 in 0.08 in 1.30 in (1961)
Month to date precipitation 0.42 1.81  
Year to date precipitation 4.13 12.23  
Sea Level Pressure  
Sea Level Pressure 29.87 in    
Wind  
Wind Speed 7 mph (East)    
Max Wind Speed 25 mph    
Max Gust Speed 31 mph    
Visibility 10 miles    
Events Rain , Thunderstorm    
T = Trace of Precipitation, MM = Missing Value Source: NWS Daily Summary

Daily Weather History Graph

Daily Weather History Graph

Search for Another Location

Airport or City:

Trip Planner

Search our weather history database for the weather conditions in past years. The results will help you decide how hot, cold, wet, or windy it might be!

Date:

Astronomy

Jul. 20, 2013 Rise Set
Actual Time 6:36 AM CDT 9:01 PM CDT
Civil Twilight 6:06 AM CDT 9:31 PM CDT
Nautical Twilight 5:29 AM CDT 10:08 PM CDT
Astronomical Twilight 4:47 AM CDT 10:49 PM CDT
Moon 7:07 PM CDT (7/20) 4:18 AM CDT (7/20)
Length of Visible Light 15h 25m
Length of Day
14h 25m
Waxing Gibbous, 94% of the Moon is Illuminated
Jul 20
Waxing Gibbous
Jul 22
Full
Jul 29
Last Quarter
Aug 6
New
Aug 14
First Quarter

Hourly Weather History & Observations

Time (CDT) Temp. Heat Index Dew Point Humidity Pressure Visibility Wind Dir Wind Speed Gust Speed Precip Events Conditions
12:03 AM 69.8 °F - 66.2 °F 88% 30.03 in 8.0 mi NNE 23.0 mph 31.1 mph 0.00 in Rain , Thunderstorm Light Rain
12:18 AM 69.8 °F - 66.2 °F 88% 30.04 in 10.0 mi NE 26.5 mph 32.2 mph 0.00 in   Overcast
12:54 AM 69.1 °F - 64.0 °F 84% 29.92 in 10.0 mi NE 24.2 mph 29.9 mph 0.00 in   Mostly Cloudy
1:54 AM 68.0 °F - 64.0 °F 87% 29.94 in 10.0 mi NE 13.8 mph - N/A   Mostly Cloudy
2:54 AM 66.9 °F - 64.0 °F 90% 29.93 in 10.0 mi NNE 13.8 mph - 0.06 in Rain Light Rain
3:54 AM 66.0 °F - 64.0 °F 93% 29.89 in 10.0 mi NNE 12.7 mph - 0.01 in Rain Light Rain
4:54 AM 66.9 °F - 64.0 °F 90% 29.87 in 10.0 mi East 6.9 mph - 0.00 in   Overcast
5:54 AM 66.0 °F - 64.9 °F 96% 29.85 in 10.0 mi SW 8.1 mph - N/A   Scattered Clouds
6:54 AM 66.9 °F - 64.9 °F 93% 29.85 in 10.0 mi West 4.6 mph - N/A   Partly Cloudy
7:54 AM 69.1 °F - 66.0 °F 90% 29.88 in 10.0 mi ENE 9.2 mph - N/A   Mostly Cloudy
8:28 AM 69.8 °F - 66.2 °F 88% 30.00 in 10.0 mi East 10.4 mph - 0.01 in   Mostly Cloudy
8:54 AM 72.0 °F - 64.9 °F 78% 29.89 in 10.0 mi East 9.2 mph - 0.01 in   Overcast
9:20 AM 73.4 °F - 66.2 °F 78% 30.00 in 10.0 mi East 11.5 mph - N/A   Scattered Clouds
9:54 AM 75.0 °F - 64.0 °F 69% 29.88 in 10.0 mi ESE 10.4 mph - N/A   Clear
10:54 AM 78.1 °F - 64.0 °F 62% 29.88 in 10.0 mi East 5.8 mph - N/A   Clear
11:54 AM 81.0 °F 81.9 °F 62.1 °F 52% 29.89 in 10.0 mi ENE 5.8 mph - N/A   Clear
12:54 PM 82.0 °F 83.1 °F 63.0 °F 52% 29.88 in 10.0 mi ENE 6.9 mph - N/A   Clear
1:54 PM 84.9 °F 85.4 °F 62.1 °F 46% 29.85 in 10.0 mi Variable 5.8 mph - N/A   Scattered Clouds
2:54 PM 87.1 °F 86.7 °F 60.1 °F 40% 29.82 in 10.0 mi Calm Calm - N/A   Partly Cloudy
3:54 PM 87.1 °F 86.1 °F 57.9 °F 37% 29.80 in 10.0 mi SSW 3.5 mph - N/A   Clear
4:54 PM 88.0 °F 87.1 °F 59.0 °F 37% 29.78 in 10.0 mi WSW 5.8 mph - N/A   Clear
5:54 PM 88.0 °F 88.4 °F 62.1 °F 42% 29.78 in 10.0 mi NE 4.6 mph - N/A   Clear
6:54 PM 89.1 °F 89.0 °F 61.0 °F 39% 29.77 in 10.0 mi ENE 6.9 mph - N/A   Clear
7:54 PM 84.9 °F 85.9 °F 63.0 °F 48% 29.77 in 10.0 mi ENE 9.2 mph - N/A   Partly Cloudy
8:54 PM 81.0 °F 82.5 °F 64.0 °F 56% 29.79 in 10.0 mi East 10.4 mph - N/A   Clear
9:54 PM 77.0 °F - 66.0 °F 69% 29.80 in 10.0 mi SE 8.1 mph - N/A   Clear
10:54 PM 75.0 °F - 64.0 °F 69% 29.83 in 10.0 mi SSW 3.5 mph - N/A   Clear
11:54 PM 73.9 °F - 64.0 °F 71% 29.83 in 10.0 mi SE 5.8 mph - N/A   Partly Cloudy